Погода в Первушине

Россия / Костромская область     58°02′42″N   41°56′19″E
В апреле 2022 года жителям России запретили посещать сайт meteo.paraplan.net по решению Генеральной прокуратуры. Аудитория сайта уменьшилась в 10 раз. Владельцы сайта не видят смысла в поддержке погодного сервера в таких условиях. Сайт будет закрыт в октябре.
темп.,
°C
ветер,
м/с
пор.,
м/с
влажн.,
%
обл.,
%
осадки,
мм/ч
давл.,
гПа
погр.,
м
25 сентября, вс
вс2500:00+8юв3987100 0.1 1003680
03:00+8юв4109195 0.2 1004561
06:00+7вюв499285 0.1 1005487
09:00+8вюв488692 0.1 1006577
12:00+12вюв4766100 0.1 10061247
15:00+12вюв3661100 0.1 10061210
18:00+10всв2576100 0.1 1006145
21:00+9св2689100 0.2 1006214
26 сентября, пн
пн2600:00+7ссв2595100 0.0 1005153
03:00+7ссз3895100 0.9 1003394
06:00+7сз41095100 1.6 1002629
09:00+8с2496100 2.7 1003332
12:00+7св3694100 0.8 1004443
15:00+6ссв2595100 1.9 1006364
18:00+6св2496100 0.7 1007305
21:00+6всв1397100 0.8 1008201
27 сентября, вт
вт2700:00+6в149897 0.0 1009202
03:00+7вюв3797100 0.2 1010481
06:00+7вюв3797100 0.1 1012444
09:00+8юв4894100 0.3 1013622
12:00+9ююв368299 0.1 1015703
15:00+9вюв3684100 0.3 1016488
18:00+8в4991100 0.3 1017486
21:00+7в4109568 0.3 1018450
28 сентября, ср
ср2800:00+7в499298 0.0 1018445
03:00+6в499199 0.0 1018461
06:00+5в41194100 0.0 1018453
09:00+5в51387100 0.0 1017570
12:00+7в61377100 0.0 1016818
15:00+8в71367100 0.0 1014986
18:00+6в71581100 0.9 1014976
21:00+5в71689100 3.1 1013951
29 сентября, чт
чт2900:00+4в71692100 1.3 1013811
03:00+3в71693100 3.6 1012735
06:00+3в61595100 3.5 1012753
09:00+3в61595100 8.8 1013728
12:00+3вюв61494100 1.0 1014616
15:00+3вюв51296100 2.7 1016568
18:00+3вюв51196100 0.4 1018506
21:00+3вюв41097100 1.2 1020444